Overview Statistics Trail Chart Weather Telemetry Raw packets
 

This is the latest recevied weather packets stored in our database for station/object K5KVN. If no packets are shown the sender has not sent any weather packets the latest 10 day(s).

<< 51 52 53 54 55 56 57 >>
Time Temp. Humidity Pressure Rain* Wind** Luminosity Snow
1787897335 18.89° C 80% 1019.8 hPa 0 mm - - -
1787896735 18.89° C 79% 1019.7 hPa 0 mm - - -
1787896197 18.89° C 80% 1019.8 hPa 0 mm - - -
1787895535 18.89° C 79% 1019.8 hPa 0 mm - - -
1787894934 19.44° C 78% 1019.8 hPa 0 mm - - -
1787894395 19.44° C 77% 1019.8 hPa 0 mm - - -
1787893734 19.44° C 76% 1019.7 hPa 0 mm - - -
1787893132 19.44° C 74% 1019.7 hPa 0 mm - - -
1787892531 20° C 74% 1019.6 hPa 0 mm - - -
1787891990 20° C 72% 1019.6 hPa 0 mm - - -
1787891327 20.56° C 72% 1019.6 hPa 0 mm - - -
1787890731 20.56° C 71% 1019.6 hPa 0 mm - - -
1787890186 21.11° C 72% 1019.4 hPa 0 mm - - -
1787889523 21.11° C 69% 1019.2 hPa 0 mm - - -
1787888921 21.67° C 72% 1019.2 hPa 0 mm - - -
1787888323 21.67° C 67% 1019 hPa 0 mm - - -
1787887723 21.67° C 66% 1019 hPa 0 mm - - -
1787887119 21.67° C 66% 1018.7 hPa 0 mm - - -
1787886522 21.67° C 67% 1018.8 hPa 0 mm - - -
1787885977 22.22° C 66% 1018.7 hPa 0 mm - - -
1787885318 22.22° C 64% 1018.6 hPa 0 mm - - -
1787884715 22.78° C 65% 1018.3 hPa 0 mm - - -
1787884115 23.33° C 61% 1018 hPa 0 mm - - -
1787883578 23.89° C 62% 1017.8 hPa 0 mm - - -
1787882972 24.44° C 57% 1017.5 hPa 0 mm - - -

* Rain latest hour (hover to see other rain measurements)
** Current wind speed in m/s (hover to see current wind gust speed)